(460083) = 2014 OD336

Discovered at Mount Lemmon on 2008-01-18 by Mt. Lemmon Survey.

Orbit

Orbit type: Main Belt

Note: WebGL enabled browser required.

epoch2024-03-31.0
epoch JD2460400.5
perihelion date2023-03-28.43349
perihelion JD2460031.93349
argument of perihelion (°)64.00574
ascending node (°)327.57063
inclination (°)13.89014
eccentricity0.1982070
perihelion distance (AU)2.0166959
Tisserand w.r.t. Jupiter3.4
ΔV w.r.t. Earth (km/sec)9.8
semimajor axis (AU)2.5152325
mean anomaly (°)91.06521
mean daily motion (°/day)0.24707950
aphelion distance (AU)3.014
period (years)3.99
P-vector [x]0.83784786
P-vector [y]0.37424027
P-vector [z]0.39743576
Q-vector [x]-0.53050755
Q-vector [y]0.72986554
Q-vector [z]0.43111254
absolute magnitude17.09
phase slope0.15
uncertainty0
referenceMPEC 2024-E144
observations used215
oppositions8
arc length (days)5896
first opposition used2008
last opposition used2024
residual rms (arc-secs)0.61
perturbers coarse indicatorM-v
perturbers precise indicator003Ek
first observation date used2008-01-18.0
last observation date used2024-03-10.0
computer nameMPCLINUX
JD of orbit computation2457436.127020
perihelion JD uncertainty (days)4.7843E-04
argument of perihelion uncertainty (°)1.3330E-04
ascending node uncertainty (°)2.4092E-05
inclination uncertainty (°)1.8587E-05
eccentricity uncertainty 5.5988E-08
perihelion distance uncertainty (AU)1.4342E-07
Minimum Orbit Intersection Distances (in AU)
for orbit epoch: 2460400.5, reference: E2024-G51
Mercury1.69891
Venus1.32886
Earth1.06153
Mars0.69535
Jupiter2.5984
Saturn6.59142
Uranus15.5832
Neptune27.7067

Observations

217 total observations over interval: 2008 01 18.29487 – 2024 03 10.269370
These data are available for download (format description).

Date (UT) J2000 RA J2000 Dec Magn Location Ref
2008 01 18.29487 08 58 35.90 +26 45 04.3 20.3 V G96 – Mt. Lemmon Survey MPS 544353
2008 01 18.30098 08 58 35.43 +26 45 04.2 20.4 V G96 – Mt. Lemmon Survey MPS 544353
2008 01 18.30543 08 58 35.11 +26 45 04.2 20.3 V G96 – Mt. Lemmon Survey MPS 544353
2008 01 18.30987 08 58 34.78 +26 45 04.2 20.2 V G96 – Mt. Lemmon Survey MPS 544353
2008 03 12.20181 08 10 25.96 +23 40 08.7 22.1 V G96 – Mt. Lemmon Survey MPS 544353
2008 03 12.21061 08 10 25.86 +23 40 05.9 21.4 V G96 – Mt. Lemmon Survey MPS 544353
2008 03 12.21946 08 10 25.75 +23 40 02.9 21.3 V G96 – Mt. Lemmon Survey MPS 544353
2008 03 12.22825 08 10 25.68 +23 39 59.9 21.2 V G96 – Mt. Lemmon Survey MPS 544353
2012 01 20.17772 09 02 38.82 +25 52 29.8 20.6 V 691 – Steward Observatory, Kitt Peak-Spacewatch MPS 544353
2012 01 20.19576 09 02 37.57 +25 52 29.7 20.6 V 691 – Steward Observatory, Kitt Peak-Spacewatch MPS 544353
2012 01 20.21382 09 02 36.21 +25 52 30.0 20.4 V 691 – Steward Observatory, Kitt Peak-Spacewatch MPS 544353
2012 01 25.52498 08 56 02.123 +25 49 24.91 20.1 r F51 – Pan-STARRS 1, Haleakala MPS 544353
2012 01 25.53706 08 56 01.189 +25 49 24.26 20.1 r F51 – Pan-STARRS 1, Haleakala MPS 544353
2012 01 25.55048 08 56 00.145 +25 49 23.41 20.1 i F51 – Pan-STARRS 1, Haleakala MPS 544353
2012 01 25.56307 08 55 59.180 +25 49 22.62 20.0 i F51 – Pan-STARRS 1, Haleakala MPS 544353
2014 07 30.39037 21 03 39.375 -24 57 40.62 19.9 w F51 – Pan-STARRS 1, Haleakala MPS 525765
2014 07 30.40227 21 03 38.509 -24 57 39.66 20.1 w F51 – Pan-STARRS 1, Haleakala MPS 525765
2014 07 30.41418 21 03 37.645 -24 57 38.62 20.1 w F51 – Pan-STARRS 1, Haleakala MPS 525765
2014 07 30.47505 21 03 33.196 -24 57 33.34 19.8 w F51 – Pan-STARRS 1, Haleakala MPS 525765
2014 07 30.48584 21 03 32.415 -24 57 32.36 19.7 w F51 – Pan-STARRS 1, Haleakala MPS 525765
2014 07 30.49665 21 03 31.625 -24 57 31.32 19.9 w F51 – Pan-STARRS 1, Haleakala MPS 525765
2014 07 30.50744 21 03 30.841 -24 57 30.35 19.9 w F51 – Pan-STARRS 1, Haleakala MPS 525765
2014 07 31.36885 21 02 30.503 -24 56 10.90 19.8 w F51 – Pan-STARRS 1, Haleakala MPS 525765
2014 07 31.38127 21 02 29.598 -24 56 09.81 19.5 w F51 – Pan-STARRS 1, Haleakala MPS 525765
2014 07 31.40605 21 02 27.786 -24 56 07.65 20.0 w F51 – Pan-STARRS 1, Haleakala MPS 525765
2014 08 03.40322 20 58 53.997 -24 50 49.09 20.1 w F51 – Pan-STARRS 1, Haleakala MPS 525765
2014 08 03.41506 20 58 53.111 -24 50 47.75 20.0 w F51 – Pan-STARRS 1, Haleakala MPS 525765
2014 08 03.42692 20 58 52.225 -24 50 46.33 19.8 w F51 – Pan-STARRS 1, Haleakala MPS 525765
2014 08 04.42423 20 57 40.505 -24 48 45.09 19.8 w F51 – Pan-STARRS 1, Haleakala MPS 525765
2014 08 04.44858 20 57 38.676 -24 48 41.96 19.7 w F51 – Pan-STARRS 1, Haleakala MPS 525765
2014 08 04.46079 20 57 37.771 -24 48 40.36 19.7 w F51 – Pan-STARRS 1, Haleakala MPS 525765
2014 08 27.34179 20 32 30.903 -23 25 07.54 20.1 w F51 – Pan-STARRS 1, Haleakala MPS 528345
2014 08 27.35320 20 32 30.270 -23 25 04.08 20.1 w F51 – Pan-STARRS 1, Haleakala MPS 528345
2014 08 27.36460 20 32 29.641 -23 25 00.56 20.2 w F51 – Pan-STARRS 1, Haleakala MPS 528345
2014 08 27.37600 20 32 29.008 -23 24 56.93 20.1 w F51 – Pan-STARRS 1, Haleakala MPS 528345
2014 09 12.30825 20 22 35.670 -21 50 54.15 20.3 i F51 – Pan-STARRS 1, Haleakala MPS 531675
2014 09 12.32021 20 22 35.395 -21 50 49.33 20.3 i F51 – Pan-STARRS 1, Haleakala MPS 531675
2014 09 18.23959 20 21 08.746 -21 11 06.63 20.7 w F51 – Pan-STARRS 1, Haleakala MPS 531675
2014 09 18.25156 20 21 08.622 -21 11 01.72 20.6 w F51 – Pan-STARRS 1, Haleakala MPS 531675
2014 09 18.26350 20 21 08.493 -21 10 56.96 20.6 w F51 – Pan-STARRS 1, Haleakala MPS 531675
2014 09 18.27541 20 21 08.365 -21 10 51.99 20.5 w F51 – Pan-STARRS 1, Haleakala MPS 531675
2014 10 25.12301 20 37 35.16 -16 29 05.3 21.0 V G96 – Mt. Lemmon Survey MPS 542369
2014 10 25.12866 20 37 35.43 -16 29 02.7 20.4 V G96 – Mt. Lemmon Survey MPS 542369
2014 10 25.13432 20 37 35.75 -16 28 59.6 21.2 V G96 – Mt. Lemmon Survey MPS 542369
2014 10 25.13997 20 37 36.08 -16 28 56.2 20.4 V G96 – Mt. Lemmon Survey MPS 542369
2016 01 07.59100 09 20 26.930 +25 13 46.06 20.5 w F51 – Pan-STARRS 1, Haleakala MPS 665603
2016 01 07.60592 09 20 26.076 +25 13 46.28 20.6 w F51 – Pan-STARRS 1, Haleakala MPS 665603
2016 01 14.82571 09 13 05.99 +25 16 08.8 20.5 R D29 – Purple Mountain Observatory, XuYi Station MPS 668529
2016 01 14.84687 09 13 04.57 +25 16 09.2 20.3 R D29 – Purple Mountain Observatory, XuYi Station MPS 668529
2016 01 18.76213 09 08 37.42 +25 16 22.8 21.1 R D29 – Purple Mountain Observatory, XuYi Station MPS 671906
2016 01 18.77981 09 08 36.17 +25 16 21.8 20.5 R D29 – Purple Mountain Observatory, XuYi Station MPS 671906
2016 01 18.79748 09 08 34.81 +25 16 21.7 20.8 R D29 – Purple Mountain Observatory, XuYi Station MPS 671906
2016 01 28.37805 08 56 53.09 +25 11 21.3 20.3 V G96 – Mt. Lemmon Survey MPS 674138
2016 01 28.38284 08 56 52.70 +25 11 20.9 20.1 V G96 – Mt. Lemmon Survey MPS 674138
2016 01 28.38764 08 56 52.32 +25 11 20.5 20.4 V G96 – Mt. Lemmon Survey MPS 674138
2016 01 28.39243 08 56 51.94 +25 11 20.4 19.9 V G96 – Mt. Lemmon Survey MPS 674138
2016 02 04.31491 08 48 18.249 +25 01 27.01 20.3 w F51 – Pan-STARRS 1, Haleakala MPS 675392
2016 02 04.32700 08 48 17.342 +25 01 25.70 20.2 w F51 – Pan-STARRS 1, Haleakala MPS 675392
2016 02 04.33912 08 48 16.442 +25 01 24.42 20.3 w F51 – Pan-STARRS 1, Haleakala MPS 675392
2016 02 04.35128 08 48 15.526 +25 01 23.16 20.2 w F51 – Pan-STARRS 1, Haleakala MPS 675392
2016 02 09.31860 08 42 22.46 +24 50 38.3 19.8 V 703 – Catalina Sky Survey MPS 679228
2016 02 09.32659 08 42 22.158 +24 50 36.07 20.4 w F51 – Pan-STARRS 1, Haleakala MPS 679228
2016 02 09.32726 08 42 21.77 +24 50 35.4 21.1 V 703 – Catalina Sky Survey MPS 679228
2016 02 09.33592 08 42 21.24 +24 50 33.8 21.1 V 703 – Catalina Sky Survey MPS 679228
2016 02 09.34455 08 42 20.54 +24 50 32.1 20.6 V 703 – Catalina Sky Survey MPS 679228
2016 02 09.35102 08 42 20.424 +24 50 32.62 20.3 w F51 – Pan-STARRS 1, Haleakala MPS 679228
2016 02 09.36329 08 42 19.550 +24 50 30.83 20.3 w F51 – Pan-STARRS 1, Haleakala MPS 679228
2016 02 11.28507 08 40 09.585 +24 45 30.79 20.5 w F51 – Pan-STARRS 1, Haleakala MPS 679228
2016 02 11.29694 08 40 08.780 +24 45 28.97 20.4 w F51 – Pan-STARRS 1, Haleakala MPS 679228
2016 02 11.30865 08 40 07.974 +24 45 27.13 20.5 w F51 – Pan-STARRS 1, Haleakala MPS 679228
2016 02 11.32029 08 40 07.176 +24 45 25.31 20.4 w F51 – Pan-STARRS 1, Haleakala MPS 679228
2016 02 17.23227 08 33 56.70 +24 27 18.0 21.1 V G96 – Mt. Lemmon Survey MPS 682637
2016 02 17.23481 08 33 56.56 +24 27 17.3 20.9 V G96 – Mt. Lemmon Survey MPS 682637
2016 02 17.23734 08 33 56.39 +24 27 17.3 20.8 V G96 – Mt. Lemmon Survey MPS 682637
2016 02 17.23989 08 33 56.20 +24 27 16.2 20.7 V G96 – Mt. Lemmon Survey MPS 682637
2016 03 03.23816 08 22 36.304 +23 26 01.56 21.0 w F51 – Pan-STARRS 1, Haleakala MPS 690138
2016 03 03.24982 08 22 35.918 +23 25 58.41 20.9 w F51 – Pan-STARRS 1, Haleakala MPS 690138
2016 03 03.26330 08 22 35.466 +23 25 54.60 21.0 w F51 – Pan-STARRS 1, Haleakala MPS 690138
2016 03 03.27498 08 22 35.082 +23 25 51.40 21.1 w F51 – Pan-STARRS 1, Haleakala MPS 690138
2016 03 27.16510 08 19 10.40 +21 20 44.3 21.6 V G96 – Mt. Lemmon Survey MPS 698684
2016 03 27.17119 08 19 10.49 +21 20 42.0 22.1 V G96 – Mt. Lemmon Survey MPS 698684
2016 03 27.17730 08 19 10.53 +21 20 40.0 22.2 V G96 – Mt. Lemmon Survey MPS 698684
2016 03 27.18341 08 19 10.57 +21 20 38.4 21.4 V G96 – Mt. Lemmon Survey MPS 698684
2018 07 11.47589 21 25 17.715 -24 42 21.42 20.5 w F51 – Pan-STARRS 1, Haleakala MPS 906003
2018 07 11.48753 21 25 17.166 -24 42 21.18 20.3 w F51 – Pan-STARRS 1, Haleakala MPS 906003
2018 07 11.49914 21 25 16.624 -24 42 21.07 20.4 w F51 – Pan-STARRS 1, Haleakala MPS 906003
2018 07 11.51077 21 25 16.066 -24 42 20.95 20.4 w F51 – Pan-STARRS 1, Haleakala MPS 906003
2018 07 14.72964 21 22 42.93 -24 41 27.4 20.5 R D29 – Purple Mountain Observatory, XuYi Station MPS 907267
2018 07 14.74378 21 22 42.17 -24 41 27.3 20.3 R D29 – Purple Mountain Observatory, XuYi Station MPS 907267
2018 07 14.75792 21 22 41.38 -24 41 25.9 20.1 R D29 – Purple Mountain Observatory, XuYi Station MPS 907267
